Afton Municipal Airport, WY

1:51 AM MST on December 08, 2019 (GMT -0700)
Afton Municipal

Weather History for KAFO - October, 2019

Change the Weather History Date:

Friday, October 4, 2019

  Actual Average Record
Temperature  
Mean Temperature 37 °F -  
Max Temperature 51 °F 64 °F 64 °F (2015)
Min Temperature 23 °F 27 °F 26 °F (2017)
Degree Days  
Heating Degree Days 28    
Moisture  
Dew Point 29 °F    
Average Humidity 81    
Maximum Humidity 100    
Minimum Humidity 44    
Precipitation  
Precipitation 0.00 in - - ()
Sea Level Pressure  
Sea Level Pressure 30.04 in    
Wind  
Wind Speed 3 mph ()    
Max Wind Speed 20 mph    
Max Gust Speed 25 mph    
Visibility 9.4 miles    
Events Rain , Snow , Thunderstorm    
Averages and records for this station are not official NWS values.
T = Trace of Precipitation, MM = Missing Value Source: Averaged Metar Reports

Daily Weather History Graph

Daily Weather History Graph

Search for Another Location

Airport or City:

Astronomy

Oct. 04, 2019 Rise Set
Actual Time 7:24 AM MDT 7:00 PM MDT
Civil Twilight 6:55 AM MDT 7:28 PM MDT
Nautical Twilight 6:23 AM MDT 8:00 PM MDT
Astronomical Twilight 5:50 AM MDT 8:33 PM MDT
Moon 2:06 PM MDT (10/4) 11:24 PM MDT (10/4)
Length of Visible Light 12h 32m
Length of Day
11h 35m
Waxing Crescent, 40% of the Moon is Illuminated
Oct 4
Waxing Crescent
Oct 5
First Quarter
Oct 13
Full
Oct 21
Last Quarter
Oct 27
New

Hourly Weather History & Observations

Time (MDT) Temp. Windchill Dew Point Humidity Pressure Visibility Wind Dir Wind Speed Gust Speed Precip Events Conditions
12:15 AM 32.0 °F - 26.6 °F 80% 30.00 in 10.0 mi Calm Calm - N/A   Clear
12:35 AM 33.8 °F - 26.6 °F 75% 29.99 in 10.0 mi Calm Calm - N/A   Clear
12:55 AM 32.0 °F - 26.6 °F 80% 29.99 in 10.0 mi Calm Calm - N/A   Clear
1:15 AM 32.0 °F 27.5 °F 26.6 °F 80% 29.99 in 10.0 mi South 4.6 mph - N/A   Clear
1:35 AM 32.0 °F 28.7 °F 24.8 °F 75% 29.99 in 10.0 mi SW 3.5 mph - N/A   Clear
1:55 AM 30.2 °F - 24.8 °F 80% 29.98 in 10.0 mi North - - N/A   Clear
2:15 AM 28.4 °F - 24.8 °F 86% 29.98 in 10.0 mi North - - N/A   Clear
2:35 AM 30.2 °F - 24.8 °F 80% 29.98 in 10.0 mi North - - N/A   Clear
2:55 AM 30.2 °F - 24.8 °F 80% 29.98 in 10.0 mi North - - N/A   Clear
3:15 AM 28.4 °F - 23.0 °F 80% 29.97 in 10.0 mi North - - N/A   Clear
3:35 AM 30.2 °F - 24.8 °F 80% 29.96 in 10.0 mi North - - N/A   Clear
3:55 AM 30.2 °F - 24.8 °F 80% 29.97 in 10.0 mi North - - N/A   Clear
4:15 AM 30.2 °F - 23.0 °F 75% 29.96 in 10.0 mi Calm Calm - N/A   Clear
4:35 AM 30.2 °F - 23.0 °F 75% 29.96 in 10.0 mi Calm Calm - N/A   Clear
4:55 AM 28.4 °F - 23.0 °F 80% 29.97 in 10.0 mi Calm Calm - N/A   Clear
5:15 AM 28.4 °F - 23.0 °F 80% 29.96 in 10.0 mi Calm Calm - N/A   Clear
5:35 AM 28.4 °F - 23.0 °F 80% 29.96 in 10.0 mi Calm Calm - N/A   Clear
5:55 AM 28.4 °F - 23.0 °F 80% 29.95 in 10.0 mi Calm Calm - N/A   Clear
6:15 AM 26.6 °F 22.6 °F 21.2 °F 80% 29.96 in 10.0 mi NW 3.5 mph - N/A   Clear
6:35 AM 26.6 °F 22.6 °F 23.0 °F 86% 29.95 in 10.0 mi North 3.5 mph - N/A   Clear
6:55 AM 24.8 °F - 21.2 °F 86% 29.96 in 10.0 mi North - - N/A   Clear
7:15 AM 26.6 °F - 21.2 °F 80% 29.96 in 10.0 mi Calm Calm - N/A   Clear
7:35 AM 23.0 °F - 21.2 °F 93% 29.96 in 10.0 mi Calm Calm - N/A   Clear
7:55 AM 26.6 °F - 23.0 °F 86% 29.97 in 10.0 mi Calm Calm - N/A   Clear
8:15 AM 28.4 °F - 24.8 °F 86% 29.97 in 10.0 mi Calm Calm - N/A   Clear
8:35 AM 30.2 °F - 26.6 °F 86% 29.97 in 10.0 mi Calm Calm - N/A   Clear
8:55 AM 30.2 °F - 26.6 °F 86% 29.98 in 10.0 mi Calm Calm - N/A   Clear
9:15 AM 32.0 °F - 26.6 °F 80% 29.97 in 10.0 mi Calm Calm - N/A   Clear
9:35 AM 32.0 °F 28.7 °F 28.4 °F 87% 29.97 in 10.0 mi SSW 3.5 mph - N/A   Clear
9:55 AM 33.8 °F - 30.2 °F 87% 29.96 in 10.0 mi Calm Calm - N/A   Mostly Cloudy
10:15 AM 35.6 °F - 28.4 °F 75% 29.96 in 10.0 mi Calm Calm - N/A   Mostly Cloudy
10:35 AM 35.6 °F 29.9 °F 30.2 °F 81% 29.97 in 10.0 mi North 6.9 mph - N/A   Scattered Clouds
10:55 AM 35.6 °F 29.9 °F 30.2 °F 81% 29.96 in 10.0 mi NNE 6.9 mph - N/A   Clear
11:15 AM 41.0 °F 37.1 °F 30.2 °F 65% 29.96 in 10.0 mi North 5.8 mph - N/A   Clear
11:35 AM 44.6 °F - 32.0 °F 61% 29.95 in 10.0 mi Calm Calm - N/A   Clear
11:55 AM 48.2 °F - 30.2 °F 50% 29.93 in 10.0 mi NW 3.5 mph - N/A   Clear
12:15 PM 50.0 °F - 32.0 °F 50% 29.93 in 10.0 mi SSW 4.6 mph - N/A   Scattered Clouds
12:35 PM 51.8 °F - 30.2 °F 44% 29.93 in 10.0 mi NNW 6.9 mph - N/A   Mostly Cloudy
12:55 PM 50.0 °F - 32.0 °F 50% 29.93 in 10.0 mi NNW 6.9 mph - N/A   Overcast
1:15 PM 46.4 °F 41.9 °F 32.0 °F 57% 29.96 in 10.0 mi NW 9.2 mph - N/A Thunderstorm Overcast
1:35 PM 46.4 °F 40.4 °F 32.0 °F 57% 29.99 in 10.0 mi WNW 13.8 mph - N/A   Mostly Cloudy
1:55 PM 46.4 °F 41.1 °F 33.8 °F 62% 30.00 in 10.0 mi NNW 11.5 mph 20.7 mph N/A   Mostly Cloudy
2:15 PM 44.6 °F 36.6 °F 32.0 °F 61% 30.02 in 10.0 mi WNW 19.6 mph 25.3 mph N/A   Overcast
2:35 PM 39.2 °F 30.2 °F 32.0 °F 75% 30.07 in 10.0 mi West 17.3 mph 23.0 mph N/A Rain Light Rain
2:55 PM 41.0 °F 36.4 °F 32.0 °F 70% 30.05 in 10.0 mi NNE 6.9 mph - N/A   Overcast
3:15 PM 41.0 °F 36.4 °F 32.0 °F 70% 30.03 in 10.0 mi NE 6.9 mph - N/A   Overcast
3:35 PM 42.8 °F 40.1 °F 30.2 °F 61% 30.03 in 10.0 mi WSW 4.6 mph - N/A   Mostly Cloudy
3:55 PM 42.8 °F 34.8 °F 32.0 °F 66% 30.04 in 10.0 mi North 17.3 mph - N/A   Scattered Clouds
4:15 PM 41.0 °F 32.2 °F 33.8 °F 76% 30.05 in 10.0 mi North 18.4 mph 21.9 mph N/A Rain Light Rain
4:35 PM 37.4 °F 28.2 °F 32.0 °F 81% 30.07 in 10.0 mi NNW 16.1 mph - N/A   Overcast
4:55 PM 37.4 °F 28.9 °F 32.0 °F 81% 30.10 in 10.0 mi West 13.8 mph 23.0 mph N/A Rain Rain
5:15 PM 33.8 °F 27.7 °F 32.0 °F 93% 30.09 in 10.0 mi ESE 6.9 mph - N/A Rain Light Rain
5:35 PM 33.8 °F 27.7 °F 33.8 °F 100% 30.11 in 10.0 mi South 6.9 mph - N/A   Overcast
5:55 PM 35.6 °F - 33.8 °F 93% 30.13 in 10.0 mi Calm Calm - N/A   Overcast
6:15 PM 35.6 °F 31.7 °F 32.0 °F 87% 30.13 in 10.0 mi South 4.6 mph - N/A   Overcast
6:35 PM 35.6 °F - 32.0 °F 87% 30.13 in 10.0 mi Calm Calm - N/A   Overcast
6:55 PM 35.6 °F 28.6 °F 32.0 °F 87% 30.14 in 10.0 mi NW 9.2 mph - N/A Rain Light Rain
7:15 PM 32.0 °F - 32.0 °F 100% 30.15 in 10.0 mi Calm Calm - N/A Rain Light Rain
7:35 PM 33.8 °F - 32.0 °F 93% 30.16 in 10.0 mi North - - N/A   Overcast
7:55 PM 33.8 °F - 32.0 °F 93% 30.17 in 10.0 mi Calm Calm - N/A   Overcast
8:15 PM 33.8 °F - 32.0 °F 93% 30.17 in 10.0 mi Calm Calm - N/A   Overcast
8:35 PM 35.6 °F 30.7 °F 32.0 °F 87% 30.17 in 10.0 mi SSE 5.8 mph - N/A   Light Drizzle
8:55 PM 35.6 °F - 32.0 °F 87% 30.19 in 10.0 mi North - - N/A   Light Drizzle
9:15 PM 33.8 °F 26.4 °F 32.0 °F 93% 30.21 in 7.0 mi West 9.2 mph - N/A Rain Light Rain
9:35 PM 32.0 °F - 32.0 °F 100% 30.22 in 2.5 mi Calm Calm - N/A Snow Light Snow
9:55 PM 32.0 °F 25.6 °F 32.0 °F 100% 30.22 in 5.0 mi SE 6.9 mph - N/A Snow Light Snow
10:15 PM 32.0 °F 24.8 °F 32.0 °F 100% 30.23 in 1.8 mi ESE 8.1 mph - N/A Snow Light Snow
10:35 PM 32.0 °F 28.7 °F 32.0 °F 100% 30.23 in 4.0 mi SE 3.5 mph - N/A Snow Light Snow
10:55 PM 32.0 °F 26.4 °F 32.0 °F 100% 30.25 in 5.0 mi SE 5.8 mph - N/A Snow Light Snow
11:15 PM 32.0 °F 24.8 °F 32.0 °F 100% 30.25 in 5.0 mi South 8.1 mph - N/A Snow Light Snow
11:35 PM 33.8 °F - 32.0 °F 93% 30.26 in 10.0 mi North - - N/A   Overcast
11:55 PM 33.8 °F 28.6 °F 30.2 °F 87% 30.28 in 10.0 mi South 5.8 mph - N/A   Overcast